Location: Blériot-Plage
(50.9575°N, 1.8224°E)
Time: 21:20:38
(UTC+00:00)

Cosmos 1758 Rocket - Pass Details

Date: 15 May 2026
Orbit: 596 x 627 km, 82.5° (Epoch: 8 June)

Event Time Altitude Azimuth Distance (km) Brightness Sun altitude
Rises 20:14:22 0° 353° (N) 2,895 7.8 -5.7°
Reaches altitude 10° 20:16:39 10° 359° (N) 1,990 6.8 -6.0°
Maximum altitude 20:20:57 50° 75° (ENE) 792 3.9 -6.5°
Drops below altitude 10° 20:25:15 10° 152° (SSE) 1,991 5.6 -7.0°
Enters shadow 20:25:51 - 153° (SSE) 2,230 5.8 -7.1°
